Main page
METAR-TAF:

METAR-TAF

Airports :

Spadeadam, England

RAF Spadeadam

latitude: 55-03N, longitude: 002-33W, elevation: 325 m

Current weather observation

The report was made 30 minutes ago, at 06:50 UTC
Wind 15 kt from the West
Temperature 10°C
Humidity 100%
Pressure 1007 hPa
Visibility 10 km or more
light rain, drizzle

METAR: EGOM 190650Z AUTO 26015KT 9999 -RADZ FEW006/// SCT043/// BKN050/// 10/10 Q1007

Time: 08:20 (07:20 UTC)


TAF: missing

Weather observations and forecasts of more than 4000 airports (METAR and TAF reports).

The available stations are represented by yellow and red dots on the map.

Hover mouse over dot to see the name of the station.

Then click to see weather observations and forecasts.

To change the map : click on the green buttons with a black cross to zoom in, on the green button with a dash to zoom out, or on the green arrows for adjacent maps.


METAR-TAF: